Washington, DC (20521)

6:45 AM EDT on October 02, 2014 (GMT -0400)
Logan Circle | Change Station
CLOSE
Current Station
Personal Weather Station
Location: Washington, DC
Elevation: 108 ft
Nearby Weather Stations

Elev 108 ft 38.91 °N, 77.03 °W | Updated 7 seconds ago

Overcast
Overcast
59.8 °F
Feels Like 59.8 °F
N
1.8
Wind Variable Wind from East
Gusts 1.8 mph

Today
High -- | Low -- °F
--% Chance of Precip.
Yesterday
High -- | Low -- °F
Precip. -- in
7:05 AM 6:49 PM
First Quarter, 57% visible
Pressure 30.00 in
Visibility 10.0 miles
Clouds Few 900 ft
Scattered Clouds 2800 ft
Overcast 10000 ft
Dew Point 56 °F
Humidity 88%
Rainfall 0.00 in
Snow Depth Not available.
UV 0 out of 12
Pollen 2.90 out of 12
Air Quality Not available.
Flu Activity Not available.
METAR KDCA 011132Z 08004KT 10SM -RA FEW009 SCT028 OVC100 19/16 A3000 RMK AO2 P0002

More Conditions Fewer Conditions

Pressure 30.00 in
Visibility 10.0 miles
Clouds Few 900 ft
Scattered Clouds 2800 ft
Overcast 10000 ft
Dew Point 56 °F
Humidity 88%
Rainfall 0.00 in
Snow Depth Not available.
UV 0 out of 12
Pollen 2.90 out of 12
Air Quality Not available.
Flu Activity Not available.
METAR KDCA 011132Z 08004KT 10SM -RA FEW009 SCT028 OVC100 19/16 A3000 RMK AO2 P0002

More Conditions Fewer Conditions

10-Day Weather Forecast

Almanac

Astronomy

Oct. 02, 2014 Rise Set
Actual Time 7:05 AM EDT 6:49 PM EDT
Civil Twilight 6:38 AM EDT 7:15 PM EDT
Nautical Twilight 6:07 AM EDT 7:46 PM EDT
Astronomical Twilight 5:36 AM EDT 8:17 PM EDT
Moon 2:51 PM EDT 12:22 AM EDT
Length of Visible Light 12h 37m
Length of Day
11h 44m
Tomorrow will be 2m 30s shorter.
First Quarter, 57% of the Moon is Illuminated
Today
First Quarter
Oct 8
Full
Oct 15
Last Quarter
Oct 23
New
Oct 30
First Quarter

Today's Extremes

State Highs State Lows

Community

WunderPhotos

Upload Photos

1,758,210 photos uploaded!

WunderBlogs® & News

Nearby

Snow Depth

Station Depth Elevation
No new snow has been reported.

Earthquake Activity

City Distance Mag. Time & Date
No recent earthquake activity has been reported nearby.
Minimum magnitude displayed is 2.5.

Coastal Water Temperatures

Place Temperature
Washington, DC 71.1 °F
Baltimore, MD 73.9 °F
Solomons Island, MD 72.0 °F

Nearby Weather Stations